GEFSMA_prec_meanprecacc_072.txt.gz
Total_Precipitation_Accumulation
0.40 0.28 0.19 0.18 0.14 0.09 0.08 0.06 0.02 0.02 0.02 0.02 0.05 0.07 0.07 0.11 0.20 0.22 0.30 0.49 0.73 0.74 0.49 0.33 0.23 0.19 0.20 0.22 0.22 0.23 0.26 0.29 0.33 0.35 0.34 0.27 0.25 0.20 0.12 0.10 0.12 0.11 0.08
0.42 0.32 0.25 0.22 0.19 0.15 0.14 0.09 0.03 0.03 0.03 0.01 0.02 0.03 0.05 0.07 0.11 0.16 0.29 0.45 0.55 0.64 0.72 0.63 0.45 0.34 0.26 0.21 0.21 0.19 0.21 0.24 0.27 0.28 0.29 0.26 0.20 0.16 0.11 0.11 0.15 0.12 0.09
0.45 0.41 0.35 0.31 0.28 0.23 0.18 0.11 0.07 0.04 0.02 0.02 0.02 0.01 0.02 0.03 0.04 0.08 0.15 0.26 0.25 0.25 0.43 0.59 0.58 0.50 0.41 0.32 0.23 0.15 0.15 0.17 0.21 0.25 0.27 0.26 0.19 0.15 0.12 0.14 0.15 0.14 0.11
0.56 0.58 0.52 0.47 0.45 0.32 0.23 0.19 0.15 0.09 0.06 0.04 0.03 0.02 0.01 0.01 0.02 0.03 0.06 0.09 0.11 0.11 0.18 0.21 0.23 0.27 0.38 0.43 0.33 0.17 0.11 0.11 0.13 0.18 0.21 0.18 0.15 0.13 0.15 0.17 0.14 0.13 0.13
0.79 0.82 0.79 0.72 0.63 0.56 0.43 0.29 0.23 0.19 0.16 0.12 0.07 0.05 0.03 0.02 0.02 0.03 0.04 0.06 0.05 0.07 0.11 0.06 0.06 0.06 0.07 0.12 0.19 0.21 0.16 0.10 0.09 0.11 0.13 0.13 0.11 0.10 0.13 0.13 0.12 0.12 0.13
1.07 1.14 1.07 0.95 0.89 0.91 0.82 0.55 0.46 0.36 0.29 0.21 0.12 0.10 0.08 0.06 0.06 0.05 0.06 0.05 0.05 0.05 0.06 0.04 0.03 0.02 0.02 0.04 0.07 0.11 0.14 0.12 0.08 0.07 0.09 0.10 0.10 0.09 0.10 0.10 0.10 0.11 0.13
1.40 1.51 1.44 1.36 1.28 1.21 1.06 0.85 0.84 0.72 0.49 0.30 0.34 0.34 0.24 0.13 0.10 0.09 0.07 0.07 0.08 0.08 0.08 0.06 0.05 0.04 0.03 0.03 0.03 0.05 0.07 0.10 0.12 0.10 0.07 0.07 0.07 0.06 0.08 0.10 0.11 0.12 0.15
1.63 1.65 1.79 1.83 1.74 1.74 1.65 1.35 1.33 1.24 0.89 0.58 0.68 0.85 0.63 0.42 0.22 0.14 0.12 0.11 0.10 0.11 0.11 0.09 0.06 0.05 0.05 0.05 0.04 0.03 0.04 0.08 0.15 0.16 0.11 0.08 0.06 0.04 0.05 0.08 0.10 0.11 0.12
1.79 1.79 1.88 1.98 1.95 1.93 1.92 1.88 1.71 1.68 1.42 0.99 0.78 0.91 0.85 0.74 0.53 0.24 0.17 0.19 0.18 0.17 0.16 0.14 0.11 0.09 0.07 0.06 0.05 0.03 0.03 0.04 0.09 0.12 0.12 0.09 0.06 0.04 0.04 0.05 0.09 0.12 0.12
1.97 2.01 2.02 2.08 2.06 2.01 2.02 2.01 1.84 1.83 1.81 1.43 1.12 0.87 0.74 0.71 0.67 0.49 0.30 0.24 0.25 0.21 0.21 0.21 0.17 0.15 0.12 0.09 0.08 0.07 0.04 0.03 0.04 0.08 0.11 0.10 0.08 0.07 0.06 0.06 0.07 0.10 0.13
2.03 2.05 2.10 2.22 2.19 2.09 2.03 2.15 2.08 2.01 1.89 1.78 1.56 1.33 1.15 0.96 0.67 0.66 0.62 0.44 0.33 0.25 0.25 0.24 0.23 0.23 0.21 0.16 0.19 0.18 0.10 0.05 0.03 0.07 0.10 0.12 0.12 0.11 0.11 0.10 0.10 0.13 0.14
2.00 1.88 1.83 1.94 1.97 1.98 1.96 2.05 2.12 2.15 2.05 2.03 1.83 1.49 1.35 1.18 0.95 0.89 0.77 0.62 0.52 0.34 0.28 0.24 0.23 0.24 0.25 0.23 0.26 0.31 0.20 0.11 0.06 0.06 0.08 0.09 0.10 0.09 0.12 0.16 0.17 0.17 0.16
1.85 1.84 1.74 1.71 1.69 1.64 1.66 1.74 1.78 1.77 1.84 1.92 1.78 1.53 1.44 1.22 1.09 1.04 0.92 0.77 0.63 0.39 0.28 0.26 0.23 0.20 0.22 0.24 0.29 0.34 0.23 0.16 0.08 0.06 0.06 0.08 0.07 0.07 0.08 0.11 0.17 0.24 0.27
1.56 1.62 1.60 1.51 1.52 1.57 1.56 1.60 1.61 1.59 1.53 1.55 1.55 1.53 1.51 1.34 1.18 1.06 1.01 1.05 0.90 0.71 0.49 0.35 0.33 0.29 0.27 0.25 0.29 0.29 0.22 0.18 0.10 0.06 0.05 0.06 0.07 0.06 0.07 0.08 0.12 0.17 0.21
1.13 1.19 1.27 1.29 1.32 1.39 1.44 1.55 1.59 1.58 1.47 1.41 1.47 1.49 1.40 1.30 1.20 1.07 1.00 0.98 0.99 0.90 0.81 0.61 0.45 0.35 0.34 0.30 0.28 0.22 0.19 0.19 0.15 0.09 0.06 0.05 0.06 0.06 0.06 0.05 0.05 0.05 0.06
0.78 0.83 0.93 1.04 1.16 1.27 1.37 1.44 1.46 1.53 1.50 1.44 1.46 1.52 1.53 1.47 1.42 1.30 1.15 1.06 0.95 0.92 0.85 0.69 0.50 0.36 0.39 0.35 0.32 0.21 0.17 0.19 0.16 0.14 0.11 0.09 0.07 0.08 0.09 0.07 0.05 0.04 0.03
0.63 0.71 0.74 0.84 0.92 1.00 1.18 1.35 1.39 1.41 1.41 1.37 1.33 1.38 1.48 1.53 1.56 1.50 1.41 1.24 1.08 1.02 0.96 0.85 0.64 0.41 0.40 0.41 0.37 0.28 0.19 0.16 0.16 0.15 0.13 0.12 0.11 0.11 0.11 0.10 0.08 0.06 0.05
0.51 0.56 0.65 0.77 0.85 0.85 0.88 1.01 1.07 1.08 1.11 1.15 1.12 1.11 1.19 1.27 1.36 1.44 1.43 1.36 1.29 1.16 1.11 1.08 0.91 0.65 0.46 0.42 0.38 0.36 0.30 0.25 0.24 0.22 0.21 0.18 0.15 0.13 0.12 0.11 0.09 0.07 0.05
0.52 0.55 0.62 0.72 0.77 0.74 0.74 0.74 0.75 0.81 0.85 0.86 0.87 0.85 0.86 0.96 1.10 1.21 1.28 1.29 1.31 1.30 1.25 1.16 1.05 0.89 0.63 0.49 0.44 0.41 0.37 0.40 0.32 0.27 0.26 0.23 0.21 0.17 0.15 0.13 0.10 0.08 0.07
0.53 0.58 0.69 0.73 0.74 0.67 0.68 0.69 0.68 0.66 0.65 0.63 0.65 0.64 0.65 0.67 0.75 0.88 1.04 1.19 1.28 1.31 1.32 1.30 1.13 0.91 0.77 0.66 0.53 0.48 0.51 0.50 0.45 0.36 0.31 0.29 0.29 0.24 0.20 0.16 0.15 0.13 0.11
0.52 0.57 0.60 0.67 0.71 0.68 0.67 0.69 0.66 0.57 0.54 0.55 0.52 0.45 0.44 0.47 0.48 0.53 0.60 0.81 1.02 1.15 1.19 1.22 1.14 0.95 0.77 0.69 0.60 0.57 0.57 0.59 0.56 0.52 0.48 0.39 0.35 0.31 0.28 0.26 0.21 0.18 0.15
0.42 0.47 0.49 0.61 0.70 0.65 0.76 0.70 0.58 0.49 0.48 0.48 0.44 0.41 0.40 0.41 0.36 0.30 0.31 0.43 0.63 0.82 0.95 1.06 1.09 0.97 0.84 0.75 0.72 0.68 0.60 0.54 0.50 0.46 0.43 0.43 0.41 0.38 0.36 0.35 0.35 0.32 0.28
0.41 0.44 0.46 0.55 0.64 0.75 0.69 0.51 0.49 0.47 0.48 0.49 0.50 0.52 0.47 0.42 0.47 0.36 0.30 0.30 0.34 0.41 0.55 0.73 0.90 0.94 0.99 0.89 0.74 0.64 0.58 0.56 0.52 0.48 0.43 0.37 0.34 0.33 0.34 0.35 0.37 0.37 0.36
0.41 0.44 0.47 0.48 0.56 0.66 0.55 0.40 0.42 0.39 0.48 0.54 0.55 0.60 0.63 0.59 0.53 0.53 0.47 0.49 0.46 0.39 0.45 0.38 0.48 0.75 0.83 0.81 0.74 0.68 0.64 0.57 0.48 0.43 0.39 0.38 0.37 0.35 0.30 0.30 0.33 0.32 0.31
0.46 0.46 0.47 0.48 0.52 0.55 0.48 0.38 0.39 0.46 0.58 0.59 0.54 0.61 0.65 0.60 0.62 0.61 0.66 0.73 0.66 0.53 0.63 0.64 0.57 0.58 0.59 0.56 0.56 0.60 0.62 0.55 0.48 0.43 0.32 0.28 0.29 0.31 0.31 0.33 0.30 0.30 0.29
0.43 0.44 0.42 0.40 0.43 0.44 0.47 0.36 0.45 0.57 0.61 0.61 0.60 0.64 0.79 0.70 0.66 0.59 0.58 0.69 0.71 0.60 0.49 0.51 0.47 0.38 0.30 0.31 0.36 0.42 0.57 0.64 0.60 0.49 0.38 0.30 0.31 0.30 0.30 0.27 0.24 0.25 0.25

GEFSMA_prec_meanprecacc_078.txt.gz
Total_Precipitation_Accumulation
0.55 0.42 0.29 0.26 0.21 0.18 0.15 0.11 0.06 0.04 0.05 0.04 0.05 0.07 0.07 0.11 0.20 0.22 0.31 0.51 0.78 0.80 0.53 0.37 0.27 0.23 0.25 0.26 0.25 0.26 0.28 0.32 0.37 0.39 0.37 0.31 0.30 0.26 0.17 0.14 0.14 0.13 0.11
0.57 0.50 0.39 0.36 0.32 0.28 0.24 0.16 0.08 0.08 0.06 0.03 0.04 0.04 0.05 0.07 0.12 0.17 0.30 0.47 0.58 0.68 0.76 0.66 0.49 0.38 0.29 0.24 0.24 0.22 0.23 0.27 0.30 0.32 0.33 0.29 0.24 0.19 0.14 0.14 0.16 0.15 0.12
0.57 0.56 0.53 0.48 0.43 0.40 0.34 0.25 0.17 0.11 0.08 0.05 0.04 0.03 0.03 0.04 0.05 0.09 0.16 0.27 0.27 0.27 0.45 0.62 0.62 0.54 0.44 0.35 0.27 0.18 0.16 0.20 0.24 0.28 0.30 0.29 0.22 0.17 0.14 0.16 0.16 0.16 0.13
0.63 0.69 0.66 0.62 0.59 0.47 0.39 0.36 0.30 0.21 0.15 0.10 0.07 0.05 0.04 0.03 0.03 0.04 0.07 0.10 0.12 0.12 0.19 0.23 0.27 0.32 0.42 0.46 0.37 0.20 0.13 0.14 0.16 0.21 0.25 0.21 0.17 0.15 0.16 0.18 0.15 0.15 0.15
0.84 0.89 0.89 0.83 0.78 0.71 0.59 0.46 0.39 0.35 0.30 0.22 0.14 0.10 0.06 0.05 0.04 0.04 0.06 0.08 0.08 0.09 0.12 0.07 0.09 0.09 0.11 0.16 0.22 0.24 0.19 0.12 0.11 0.13 0.16 0.15 0.13 0.12 0.14 0.15 0.14 0.14 0.15
1.10 1.18 1.13 1.05 1.03 1.04 0.97 0.71 0.63 0.55 0.46 0.35 0.23 0.19 0.14 0.11 0.09 0.09 0.09 0.08 0.08 0.07 0.08 0.05 0.05 0.04 0.05 0.07 0.10 0.14 0.17 0.14 0.09 0.09 0.10 0.12 0.11 0.10 0.11 0.12 0.12 0.13 0.15
1.42 1.54 1.49 1.44 1.39 1.31 1.19 1.02 1.02 0.90 0.66 0.46 0.47 0.43 0.31 0.20 0.15 0.13 0.11 0.11 0.11 0.10 0.10 0.08 0.07 0.05 0.05 0.05 0.05 0.07 0.10 0.13 0.14 0.12 0.09 0.10 0.09 0.08 0.09 0.11 0.12 0.13 0.16
1.64 1.67 1.82 1.87 1.81 1.83 1.76 1.50 1.49 1.39 1.06 0.75 0.82 0.98 0.73 0.49 0.26 0.18 0.17 0.15 0.14 0.14 0.14 0.11 0.08 0.06 0.06 0.06 0.04 0.04 0.06 0.10 0.18 0.19 0.14 0.11 0.09 0.06 0.06 0.09 0.12 0.12 0.13
1.79 1.80 1.89 2.00 1.99 2.01 2.03 2.01 1.86 1.83 1.58 1.16 0.94 1.04 0.94 0.80 0.59 0.28 0.21 0.23 0.22 0.21 0.20 0.18 0.15 0.12 0.10 0.07 0.06 0.04 0.04 0.05 0.11 0.15 0.15 0.12 0.08 0.06 0.05 0.07 0.11 0.14 0.13
1.99 2.03 2.03 2.10 2.10 2.07 2.10 2.14 2.01 2.00 1.98 1.60 1.29 1.02 0.83 0.77 0.72 0.53 0.34 0.28 0.29 0.25 0.25 0.24 0.21 0.18 0.16 0.11 0.10 0.08 0.05 0.04 0.06 0.10 0.13 0.13 0.11 0.10 0.08 0.07 0.09 0.11 0.15
2.05 2.07 2.12 2.24 2.22 2.13 2.09 2.24 2.21 2.17 2.05 1.92 1.70 1.49 1.30 1.05 0.72 0.69 0.66 0.48 0.37 0.29 0.29 0.29 0.28 0.27 0.25 0.20 0.22 0.20 0.12 0.07 0.05 0.10 0.14 0.16 0.15 0.15 0.15 0.13 0.13 0.15 0.17
2.03 1.92 1.86 1.97 2.01 2.01 2.00 2.11 2.24 2.30 2.21 2.19 1.98 1.62 1.47 1.29 1.03 0.94 0.80 0.65 0.56 0.38 0.32 0.29 0.28 0.29 0.29 0.28 0.31 0.37 0.26 0.16 0.09 0.09 0.13 0.15 0.15 0.15 0.17 0.20 0.20 0.20 0.19
1.88 1.88 1.77 1.75 1.72 1.67 1.70 1.79 1.86 1.90 1.98 2.10 1.96 1.69 1.57 1.33 1.18 1.14 1.00 0.82 0.68 0.43 0.33 0.32 0.28 0.25 0.27 0.29 0.35 0.44 0.31 0.21 0.13 0.11 0.12 0.14 0.13 0.12 0.12 0.15 0.21 0.28 0.30
1.59 1.65 1.63 1.56 1.56 1.60 1.60 1.65 1.66 1.66 1.64 1.68 1.70 1.70 1.68 1.49 1.30 1.16 1.10 1.13 0.96 0.75 0.53 0.39 0.39 0.35 0.33 0.32 0.37 0.38 0.30 0.26 0.19 0.13 0.11 0.12 0.14 0.12 0.11 0.12 0.16 0.22 0.26
1.15 1.22 1.30 1.33 1.36 1.42 1.47 1.57 1.63 1.63 1.55 1.50 1.57 1.63 1.56 1.46 1.37 1.22 1.12 1.08 1.08 0.97 0.85 0.65 0.50 0.42 0.43 0.39 0.38 0.30 0.27 0.29 0.25 0.20 0.18 0.16 0.15 0.14 0.12 0.10 0.09 0.08 0.09
0.81 0.86 0.97 1.09 1.21 1.32 1.41 1.48 1.51 1.58 1.58 1.53 1.56 1.65 1.67 1.62 1.57 1.46 1.31 1.20 1.07 1.02 0.93 0.75 0.55 0.42 0.47 0.44 0.41 0.30 0.26 0.30 0.26 0.24 0.20 0.19 0.18 0.17 0.16 0.13 0.08 0.06 0.05
0.66 0.75 0.79 0.89 0.99 1.09 1.26 1.43 1.47 1.49 1.49 1.46 1.42 1.47 1.57 1.63 1.68 1.65 1.58 1.43 1.26 1.17 1.08 0.94 0.71 0.48 0.48 0.50 0.45 0.34 0.27 0.25 0.24 0.23 0.21 0.20 0.18 0.18 0.19 0.19 0.15 0.10 0.07
0.53 0.60 0.69 0.82 0.93 0.96 0.97 1.09 1.16 1.18 1.19 1.24 1.23 1.21 1.28 1.36 1.46 1.56 1.59 1.53 1.44 1.29 1.22 1.17 1.00 0.73 0.55 0.51 0.47 0.44 0.38 0.32 0.30 0.30 0.29 0.26 0.24 0.22 0.21 0.20 0.17 0.14 0.10
0.54 0.58 0.67 0.78 0.82 0.82 0.84 0.81 0.84 0.91 0.95 0.96 1.00 0.98 0.99 1.07 1.19 1.29 1.38 1.40 1.44 1.42 1.36 1.28 1.18 1.01 0.74 0.59 0.54 0.50 0.46 0.50 0.42 0.37 0.36 0.33 0.31 0.28 0.27 0.25 0.22 0.18 0.15
0.55 0.60 0.72 0.79 0.79 0.73 0.77 0.77 0.75 0.74 0.74 0.72 0.75 0.77 0.80 0.80 0.85 0.97 1.13 1.29 1.40 1.44 1.44 1.41 1.26 1.05 0.91 0.78 0.64 0.58 0.61 0.60 0.56 0.48 0.43 0.40 0.40 0.35 0.31 0.27 0.24 0.22 0.20
0.54 0.59 0.64 0.73 0.77 0.75 0.75 0.77 0.71 0.62 0.60 0.63 0.60 0.52 0.54 0.59 0.58 0.61 0.68 0.93 1.13 1.26 1.31 1.34 1.26 1.06 0.89 0.81 0.70 0.67 0.67 0.68 0.65 0.62 0.58 0.48 0.44 0.40 0.37 0.35 0.28 0.23 0.20
0.43 0.48 0.52 0.67 0.79 0.72 0.81 0.76 0.62 0.53 0.52 0.55 0.52 0.47 0.47 0.50 0.44 0.37 0.38 0.54 0.77 0.93 1.05 1.15 1.18 1.06 0.93 0.83 0.80 0.77 0.70 0.63 0.60 0.56 0.50 0.51 0.48 0.44 0.41 0.40 0.42 0.38 0.33
0.42 0.46 0.49 0.59 0.69 0.80 0.74 0.56 0.54 0.51 0.53 0.55 0.55 0.58 0.54 0.50 0.56 0.44 0.38 0.39 0.44 0.52 0.64 0.81 0.98 1.01 1.07 0.96 0.80 0.71 0.65 0.64 0.62 0.58 0.49 0.44 0.40 0.39 0.39 0.40 0.43 0.43 0.42
0.41 0.45 0.49 0.50 0.58 0.69 0.60 0.45 0.46 0.43 0.53 0.60 0.62 0.66 0.67 0.64 0.60 0.62 0.56 0.57 0.52 0.45 0.51 0.42 0.52 0.80 0.89 0.88 0.80 0.74 0.71 0.63 0.54 0.51 0.46 0.43 0.42 0.39 0.34 0.33 0.35 0.35 0.34
0.46 0.47 0.49 0.51 0.56 0.59 0.53 0.43 0.43 0.49 0.63 0.65 0.60 0.67 0.70 0.64 0.68 0.70 0.73 0.79 0.72 0.58 0.69 0.69 0.61 0.62 0.65 0.64 0.63 0.66 0.68 0.62 0.55 0.50 0.38 0.32 0.32 0.34 0.33 0.34 0.32 0.33 0.31
0.45 0.46 0.45 0.43 0.45 0.46 0.50 0.40 0.48 0.59 0.64 0.65 0.64 0.69 0.83 0.74 0.70 0.67 0.65 0.74 0.76 0.64 0.53 0.54 0.50 0.42 0.35 0.38 0.45 0.49 0.64 0.71 0.68 0.57 0.44 0.34 0.34 0.32 0.32 0.29 0.25 0.26 0.26

GEFSMA_prec_meanprecacc_084.txt.gz
Total_Precipitation_Accumulation
0.66 0.55 0.41 0.38 0.32 0.29 0.26 0.24 0.19 0.15 0.13 0.09 0.09 0.09 0.08 0.12 0.21 0.24 0.33 0.52 0.81 0.86 0.60 0.43 0.32 0.27 0.29 0.30 0.30 0.31 0.34 0.38 0.42 0.43 0.41 0.36 0.38 0.33 0.22 0.17 0.17 0.16 0.15
0.64 0.62 0.52 0.49 0.46 0.42 0.38 0.30 0.22 0.22 0.18 0.11 0.08 0.07 0.07 0.08 0.13 0.18 0.32 0.49 0.59 0.70 0.81 0.72 0.55 0.43 0.34 0.29 0.27 0.25 0.27 0.31 0.34 0.37 0.37 0.34 0.31 0.25 0.19 0.18 0.19 0.17 0.14
0.62 0.65 0.64 0.61 0.57 0.56 0.51 0.41 0.31 0.28 0.22 0.14 0.10 0.07 0.04 0.05 0.06 0.12 0.18 0.29 0.29 0.29 0.48 0.67 0.68 0.59 0.49 0.41 0.31 0.21 0.19 0.22 0.27 0.32 0.35 0.33 0.27 0.21 0.17 0.19 0.20 0.19 0.15
0.66 0.73 0.72 0.71 0.72 0.59 0.53 0.49 0.43 0.37 0.29 0.20 0.15 0.09 0.05 0.05 0.05 0.06 0.08 0.12 0.15 0.15 0.20 0.25 0.30 0.36 0.48 0.53 0.46 0.26 0.17 0.17 0.20 0.25 0.30 0.26 0.20 0.19 0.19 0.21 0.18 0.18 0.17
0.85 0.91 0.92 0.90 0.88 0.83 0.71 0.57 0.50 0.48 0.45 0.36 0.24 0.17 0.09 0.07 0.07 0.06 0.07 0.09 0.10 0.12 0.15 0.10 0.11 0.12 0.16 0.24 0.32 0.32 0.25 0.17 0.15 0.17 0.20 0.18 0.15 0.15 0.16 0.17 0.15 0.15 0.17
1.10 1.19 1.16 1.10 1.10 1.14 1.09 0.84 0.78 0.69 0.59 0.50 0.36 0.27 0.20 0.17 0.14 0.13 0.11 0.10 0.10 0.09 0.11 0.07 0.08 0.07 0.08 0.11 0.17 0.21 0.22 0.18 0.13 0.12 0.14 0.14 0.13 0.12 0.13 0.14 0.13 0.14 0.16
1.42 1.55 1.51 1.48 1.45 1.38 1.28 1.17 1.20 1.10 0.83 0.63 0.66 0.57 0.39 0.25 0.21 0.18 0.15 0.14 0.14 0.13 0.13 0.10 0.09 0.09 0.07 0.07 0.08 0.11 0.15 0.18 0.18 0.16 0.13 0.13 0.12 0.10 0.11 0.13 0.14 0.15 0.18
1.65 1.68 1.84 1.90 1.85 1.89 1.83 1.59 1.63 1.59 1.25 0.93 1.01 1.17 0.88 0.59 0.34 0.23 0.21 0.19 0.18 0.18 0.18 0.13 0.10 0.09 0.09 0.10 0.06 0.06 0.08 0.15 0.23 0.23 0.19 0.15 0.11 0.08 0.08 0.11 0.14 0.15 0.16
1.80 1.82 1.91 2.04 2.03 2.05 2.08 2.08 1.97 1.98 1.74 1.34 1.12 1.23 1.10 0.93 0.69 0.35 0.26 0.28 0.27 0.26 0.25 0.22 0.16 0.14 0.11 0.10 0.09 0.05 0.05 0.07 0.14 0.20 0.19 0.16 0.12 0.08 0.07 0.08 0.12 0.15 0.15
2.01 2.05 2.05 2.13 2.13 2.11 2.14 2.20 2.11 2.12 2.13 1.75 1.45 1.18 0.97 0.90 0.85 0.63 0.40 0.33 0.35 0.31 0.30 0.29 0.24 0.21 0.18 0.15 0.13 0.09 0.06 0.05 0.07 0.13 0.18 0.18 0.15 0.13 0.10 0.09 0.10 0.13 0.17
2.07 2.09 2.14 2.26 2.24 2.16 2.13 2.30 2.29 2.30 2.19 2.07 1.87 1.66 1.46 1.19 0.83 0.81 0.76 0.56 0.44 0.34 0.33 0.34 0.33 0.31 0.28 0.24 0.27 0.23 0.13 0.08 0.06 0.12 0.18 0.22 0.21 0.19 0.17 0.15 0.15 0.18 0.19
2.07 1.96 1.88 2.00 2.03 2.04 2.04 2.17 2.30 2.38 2.32 2.32 2.14 1.81 1.66 1.47 1.15 1.06 0.91 0.74 0.65 0.45 0.37 0.34 0.32 0.33 0.33 0.32 0.34 0.39 0.27 0.18 0.11 0.11 0.16 0.20 0.20 0.19 0.20 0.23 0.23 0.23 0.22
1.90 1.91 1.80 1.78 1.75 1.70 1.73 1.85 1.91 1.96 2.06 2.19 2.08 1.83 1.74 1.50 1.36 1.30 1.15 0.93 0.77 0.50 0.39 0.36 0.32 0.30 0.31 0.32 0.39 0.48 0.33 0.23 0.15 0.12 0.14 0.16 0.17 0.16 0.15 0.18 0.24 0.30 0.32
1.61 1.66 1.65 1.58 1.58 1.63 1.63 1.69 1.71 1.71 1.70 1.76 1.79 1.80 1.80 1.63 1.47 1.32 1.27 1.29 1.10 0.84 0.60 0.45 0.42 0.39 0.37 0.35 0.42 0.44 0.34 0.30 0.21 0.15 0.13 0.14 0.17 0.16 0.15 0.15 0.19 0.25 0.29
1.18 1.23 1.31 1.35 1.38 1.46 1.51 1.62 1.67 1.67 1.60 1.57 1.66 1.71 1.65 1.58 1.50 1.35 1.26 1.25 1.26 1.10 0.94 0.71 0.54 0.46 0.47 0.44 0.46 0.36 0.32 0.34 0.28 0.23 0.20 0.18 0.18 0.18 0.16 0.14 0.12 0.11 0.12
0.82 0.88 0.99 1.11 1.24 1.36 1.45 1.52 1.55 1.61 1.63 1.59 1.64 1.72 1.73 1.74 1.72 1.60 1.45 1.35 1.22 1.17 1.07 0.86 0.63 0.47 0.52 0.49 0.49 0.35 0.32 0.38 0.33 0.30 0.25 0.23 0.21 0.21 0.20 0.15 0.11 0.08 0.06
0.67 0.76 0.80 0.92 1.03 1.13 1.32 1.49 1.52 1.53 1.53 1.51 1.48 1.53 1.63 1.72 1.81 1.79 1.74 1.58 1.41 1.32 1.24 1.06 0.81 0.56 0.54 0.56 0.52 0.40 0.34 0.31 0.31 0.31 0.28 0.26 0.24 0.22 0.23 0.22 0.18 0.14 0.10
0.54 0.61 0.71 0.85 0.96 1.01 1.04 1.14 1.22 1.23 1.24 1.29 1.28 1.26 1.34 1.43 1.54 1.66 1.72 1.67 1.59 1.44 1.36 1.33 1.14 0.83 0.63 0.58 0.55 0.53 0.46 0.40 0.39 0.42 0.38 0.35 0.31 0.27 0.26 0.24 0.22 0.19 0.15
0.55 0.59 0.70 0.81 0.86 0.88 0.91 0.87 0.89 0.96 1.00 1.01 1.06 1.04 1.06 1.13 1.24 1.35 1.43 1.49 1.55 1.56 1.50 1.41 1.31 1.13 0.86 0.71 0.66 0.62 0.58 0.61 0.51 0.47 0.46 0.43 0.40 0.37 0.36 0.33 0.29 0.25 0.20
0.58 0.62 0.75 0.82 0.83 0.77 0.83 0.83 0.80 0.79 0.78 0.76 0.81 0.83 0.86 0.86 0.90 1.02 1.18 1.34 1.47 1.54 1.58 1.54 1.38 1.17 1.03 0.93 0.80 0.75 0.78 0.75 0.69 0.60 0.55 0.51 0.51 0.46 0.42 0.37 0.34 0.30 0.27
0.58 0.64 0.67 0.77 0.81 0.79 0.81 0.85 0.79 0.67 0.64 0.67 0.64 0.56 0.59 0.65 0.64 0.67 0.74 0.99 1.19 1.33 1.43 1.47 1.38 1.17 1.00 0.93 0.84 0.83 0.84 0.85 0.80 0.76 0.71 0.61 0.56 0.51 0.48 0.45 0.38 0.31 0.26
0.47 0.53 0.56 0.72 0.84 0.76 0.87 0.83 0.70 0.59 0.57 0.59 0.56 0.51 0.51 0.56 0.50 0.43 0.44 0.61 0.86 1.01 1.15 1.27 1.30 1.17 1.03 0.93 0.91 0.89 0.83 0.78 0.75 0.68 0.61 0.64 0.60 0.58 0.55 0.51 0.51 0.46 0.40
0.43 0.48 0.52 0.66 0.75 0.84 0.78 0.61 0.62 0.59 0.60 0.60 0.61 0.62 0.58 0.55 0.62 0.51 0.43 0.45 0.53 0.64 0.76 0.94 1.10 1.13 1.18 1.08 0.92 0.82 0.78 0.77 0.75 0.72 0.61 0.57 0.54 0.51 0.50 0.49 0.52 0.50 0.48
0.42 0.46 0.51 0.54 0.61 0.72 0.64 0.49 0.53 0.50 0.59 0.65 0.68 0.72 0.73 0.69 0.65 0.70 0.63 0.65 0.60 0.55 0.63 0.53 0.66 0.95 1.03 1.04 0.96 0.89 0.86 0.78 0.70 0.67 0.59 0.57 0.56 0.50 0.43 0.40 0.42 0.40 0.38
0.47 0.48 0.52 0.54 0.59 0.62 0.56 0.46 0.47 0.53 0.66 0.69 0.66 0.73 0.75 0.68 0.73 0.77 0.83 0.89 0.82 0.68 0.80 0.81 0.72 0.76 0.80 0.79 0.80 0.81 0.82 0.76 0.69 0.63 0.49 0.42 0.43 0.43 0.42 0.42 0.38 0.37 0.34
0.46 0.47 0.46 0.46 0.50 0.52 0.55 0.43 0.51 0.61 0.67 0.68 0.68 0.74 0.88 0.78 0.74 0.72 0.73 0.83 0.84 0.73 0.61 0.64 0.60 0.51 0.44 0.48 0.57 0.61 0.75 0.83 0.79 0.67 0.52 0.41 0.42 0.40 0.39 0.35 0.30 0.30 0.29

GEFSMA_prec_meanprecacc_090.txt.gz
Total_Precipitation_Accumulation
0.76 0.68 0.54 0.53 0.46 0.45 0.47 0.46 0.39 0.31 0.27 0.20 0.19 0.18 0.16 0.18 0.25 0.26 0.36 0.53 0.81 0.88 0.63 0.45 0.33 0.28 0.31 0.31 0.31 0.33 0.38 0.42 0.48 0.51 0.48 0.42 0.43 0.38 0.27 0.21 0.20 0.18 0.17
0.70 0.72 0.65 0.63 0.62 0.58 0.56 0.49 0.40 0.41 0.36 0.26 0.20 0.17 0.13 0.13 0.17 0.23 0.36 0.50 0.59 0.71 0.83 0.75 0.58 0.46 0.36 0.32 0.29 0.27 0.29 0.34 0.39 0.43 0.44 0.39 0.36 0.31 0.24 0.21 0.22 0.19 0.16
0.67 0.72 0.74 0.72 0.70 0.70 0.65 0.59 0.51 0.50 0.42 0.30 0.25 0.18 0.11 0.09 0.10 0.17 0.23 0.32 0.31 0.29 0.48 0.68 0.70 0.62 0.53 0.45 0.34 0.23 0.21 0.25 0.30 0.35 0.40 0.38 0.32 0.27 0.21 0.23 0.23 0.22 0.17
0.69 0.78 0.78 0.79 0.83 0.73 0.67 0.65 0.63 0.60 0.51 0.41 0.34 0.24 0.13 0.11 0.09 0.10 0.14 0.17 0.19 0.17 0.21 0.26 0.32 0.41 0.54 0.58 0.50 0.29 0.19 0.19 0.23 0.29 0.34 0.30 0.24 0.23 0.22 0.24 0.21 0.21 0.20
0.86 0.92 0.96 0.97 0.98 0.96 0.85 0.71 0.67 0.68 0.67 0.59 0.45 0.34 0.22 0.17 0.13 0.10 0.14 0.15 0.15 0.16 0.19 0.12 0.12 0.14 0.19 0.29 0.37 0.36 0.28 0.19 0.17 0.20 0.24 0.22 0.18 0.18 0.19 0.19 0.17 0.17 0.19
1.12 1.21 1.19 1.15 1.19 1.24 1.21 0.98 0.97 0.89 0.78 0.71 0.55 0.44 0.37 0.30 0.23 0.20 0.17 0.17 0.19 0.17 0.18 0.13 0.10 0.08 0.09 0.13 0.19 0.23 0.23 0.20 0.15 0.14 0.16 0.16 0.15 0.14 0.15 0.15 0.15 0.16 0.18
1.45 1.59 1.55 1.53 1.52 1.46 1.38 1.29 1.36 1.29 1.02 0.85 0.88 0.79 0.61 0.42 0.34 0.27 0.21 0.20 0.25 0.27 0.26 0.20 0.15 0.13 0.09 0.08 0.09 0.12 0.16 0.19 0.21 0.18 0.16 0.17 0.14 0.11 0.13 0.15 0.16 0.17 0.19
1.69 1.72 1.88 1.96 1.92 1.98 1.93 1.71 1.78 1.78 1.45 1.17 1.24 1.38 1.09 0.82 0.51 0.33 0.29 0.26 0.28 0.32 0.34 0.27 0.21 0.17 0.13 0.14 0.08 0.06 0.09 0.16 0.26 0.26 0.22 0.18 0.13 0.09 0.09 0.12 0.15 0.16 0.17
1.83 1.85 1.95 2.08 2.09 2.14 2.19 2.22 2.13 2.16 1.93 1.55 1.38 1.49 1.30 1.11 0.88 0.48 0.35 0.36 0.37 0.40 0.39 0.37 0.30 0.25 0.19 0.16 0.12 0.06 0.06 0.08 0.16 0.22 0.23 0.19 0.13 0.09 0.08 0.09 0.13 0.17 0.17
2.03 2.08 2.09 2.17 2.18 2.18 2.24 2.31 2.25 2.30 2.33 1.94 1.66 1.42 1.20 1.11 1.07 0.82 0.56 0.43 0.45 0.44 0.46 0.45 0.38 0.33 0.28 0.24 0.19 0.11 0.07 0.06 0.08 0.15 0.20 0.21 0.19 0.15 0.12 0.10 0.11 0.14 0.19
2.11 2.14 2.19 2.32 2.29 2.23 2.22 2.40 2.41 2.44 2.35 2.27 2.08 1.87 1.68 1.42 1.05 1.04 0.96 0.72 0.57 0.44 0.45 0.47 0.45 0.43 0.41 0.36 0.38 0.28 0.16 0.08 0.06 0.14 0.20 0.25 0.25 0.23 0.20 0.18 0.17 0.19 0.20
2.11 2.00 1.93 2.05 2.10 2.11 2.11 2.26 2.41 2.49 2.43 2.46 2.32 2.01 1.85 1.66 1.34 1.27 1.12 0.95 0.85 0.62 0.50 0.47 0.45 0.44 0.44 0.44 0.44 0.48 0.33 0.20 0.11 0.12 0.18 0.23 0.23 0.23 0.24 0.26 0.26 0.25 0.24
1.95 1.95 1.84 1.83 1.81 1.75 1.78 1.92 1.99 2.04 2.16 2.28 2.19 1.97 1.90 1.68 1.57 1.53 1.39 1.18 0.97 0.68 0.57 0.50 0.45 0.43 0.40 0.41 0.50 0.58 0.40 0.26 0.15 0.13 0.14 0.18 0.20 0.21 0.21 0.24 0.29 0.33 0.35
1.66 1.71 1.69 1.62 1.61 1.66 1.67 1.75 1.77 1.77 1.78 1.86 1.88 1.91 1.93 1.78 1.65 1.50 1.44 1.52 1.32 1.02 0.77 0.61 0.56 0.53 0.49 0.45 0.55 0.56 0.39 0.34 0.23 0.16 0.14 0.16 0.19 0.19 0.19 0.20 0.24 0.29 0.32
1.23 1.29 1.37 1.40 1.43 1.50 1.56 1.67 1.74 1.74 1.68 1.66 1.77 1.82 1.76 1.71 1.64 1.49 1.40 1.41 1.45 1.30 1.11 0.87 0.69 0.60 0.61 0.59 0.65 0.46 0.38 0.39 0.31 0.24 0.21 0.19 0.19 0.19 0.19 0.17 0.16 0.15 0.15
0.87 0.92 1.04 1.17 1.32 1.43 1.50 1.57 1.61 1.67 1.70 1.67 1.74 1.83 1.84 1.85 1.85 1.73 1.57 1.47 1.36 1.32 1.24 1.02 0.77 0.61 0.68 0.65 0.68 0.48 0.43 0.49 0.39 0.33 0.27 0.24 0.22 0.22 0.21 0.17 0.12 0.09 0.08
0.71 0.81 0.85 0.98 1.10 1.21 1.40 1.57 1.59 1.59 1.61 1.59 1.56 1.63 1.73 1.82 1.93 1.93 1.87 1.71 1.53 1.46 1.37 1.21 0.95 0.69 0.70 0.74 0.68 0.56 0.48 0.40 0.38 0.37 0.31 0.28 0.25 0.23 0.25 0.24 0.20 0.15 0.11
0.58 0.65 0.76 0.91 1.03 1.10 1.13 1.22 1.30 1.31 1.32 1.36 1.35 1.34 1.42 1.54 1.66 1.79 1.85 1.80 1.75 1.61 1.51 1.47 1.27 0.97 0.76 0.72 0.70 0.69 0.61 0.50 0.48 0.51 0.45 0.39 0.34 0.30 0.28 0.26 0.23 0.20 0.17
0.57 0.62 0.74 0.86 0.90 0.93 0.97 0.93 0.97 1.05 1.07 1.07 1.12 1.11 1.13 1.23 1.34 1.47 1.56 1.63 1.71 1.73 1.68 1.57 1.44 1.25 0.98 0.85 0.83 0.79 0.73 0.74 0.63 0.60 0.58 0.52 0.48 0.43 0.41 0.37 0.32 0.28 0.24
0.60 0.65 0.79 0.87 0.87 0.81 0.88 0.88 0.87 0.87 0.86 0.83 0.88 0.91 0.94 0.96 1.01 1.13 1.28 1.46 1.61 1.70 1.74 1.70 1.56 1.31 1.15 1.05 0.96 0.95 0.96 0.93 0.85 0.72 0.69 0.64 0.63 0.55 0.50 0.45 0.40 0.36 0.33
0.61 0.67 0.71 0.81 0.85 0.82 0.84 0.89 0.85 0.75 0.71 0.73 0.71 0.63 0.65 0.71 0.72 0.74 0.80 1.07 1.30 1.46 1.55 1.61 1.52 1.33 1.13 1.04 0.95 0.97 1.02 1.07 1.02 0.94 0.87 0.74 0.68 0.61 0.57 0.54 0.47 0.40 0.34
0.50 0.55 0.59 0.75 0.87 0.78 0.89 0.86 0.76 0.66 0.63 0.65 0.62 0.58 0.57 0.61 0.55 0.48 0.49 0.67 0.95 1.11 1.26 1.39 1.42 1.28 1.14 1.04 1.03 1.02 0.98 0.97 0.95 0.84 0.74 0.77 0.72 0.69 0.64 0.60 0.62 0.57 0.49
0.45 0.50 0.54 0.69 0.79 0.87 0.80 0.65 0.67 0.65 0.65 0.65 0.66 0.68 0.63 0.59 0.67 0.57 0.49 0.51 0.60 0.71 0.85 1.04 1.22 1.25 1.31 1.20 1.04 0.94 0.91 0.90 0.88 0.87 0.77 0.71 0.66 0.64 0.60 0.60 0.64 0.61 0.58
0.43 0.48 0.54 0.57 0.64 0.76 0.69 0.55 0.58 0.55 0.65 0.72 0.74 0.76 0.78 0.74 0.71 0.77 0.71 0.72 0.68 0.62 0.70 0.62 0.76 1.07 1.18 1.19 1.10 1.03 0.99 0.90 0.83 0.81 0.75 0.75 0.73 0.68 0.57 0.52 0.55 0.51 0.47
0.47 0.49 0.54 0.57 0.62 0.65 0.61 0.52 0.53 0.58 0.72 0.75 0.72 0.79 0.80 0.73 0.77 0.82 0.91 0.97 0.90 0.76 0.89 0.91 0.81 0.86 0.94 0.95 0.98 0.98 0.98 0.88 0.82 0.78 0.64 0.58 0.58 0.59 0.58 0.55 0.50 0.49 0.44
0.46 0.48 0.47 0.47 0.51 0.53 0.56 0.46 0.56 0.67 0.73 0.73 0.74 0.79 0.92 0.81 0.77 0.76 0.81 0.91 0.91 0.80 0.70 0.72 0.68 0.59 0.52 0.58 0.71 0.79 0.93 0.98 0.90 0.79 0.64 0.53 0.55 0.51 0.53 0.49 0.41 0.40 0.38

GEFSMA_prec_meanprecacc_096.txt.gz
Total_Precipitation_Accumulation
0.76 0.69 0.57 0.58 0.52 0.52 0.55 0.55 0.51 0.43 0.39 0.33 0.34 0.34 0.32 0.32 0.35 0.35 0.43 0.62 0.90 0.96 0.69 0.49 0.36 0.30 0.33 0.34 0.34 0.35 0.40 0.45 0.50 0.54 0.51 0.45 0.47 0.41 0.29 0.23 0.23 0.21 0.22
0.71 0.73 0.67 0.67 0.67 0.63 0.62 0.59 0.52 0.54 0.49 0.39 0.34 0.33 0.31 0.27 0.28 0.34 0.45 0.59 0.68 0.78 0.90 0.80 0.60 0.48 0.39 0.33 0.31 0.29 0.31 0.37 0.41 0.46 0.48 0.42 0.39 0.34 0.27 0.23 0.24 0.21 0.20
0.67 0.73 0.75 0.74 0.74 0.75 0.73 0.71 0.66 0.67 0.58 0.48 0.42 0.34 0.27 0.23 0.23 0.31 0.35 0.42 0.37 0.35 0.55 0.74 0.75 0.66 0.55 0.47 0.36 0.25 0.23 0.27 0.32 0.37 0.43 0.42 0.34 0.28 0.22 0.25 0.26 0.24 0.19
0.69 0.78 0.79 0.81 0.85 0.78 0.74 0.77 0.77 0.77 0.70 0.62 0.55 0.41 0.28 0.26 0.24 0.26 0.28 0.32 0.31 0.23 0.26 0.32 0.37 0.46 0.59 0.62 0.51 0.31 0.21 0.21 0.24 0.31 0.37 0.32 0.26 0.25 0.24 0.26 0.24 0.23 0.23
0.86 0.93 0.96 0.98 0.99 1.00 0.92 0.79 0.77 0.80 0.82 0.75 0.60 0.47 0.34 0.31 0.30 0.28 0.33 0.34 0.33 0.27 0.25 0.16 0.17 0.18 0.25 0.35 0.42 0.39 0.30 0.20 0.18 0.22 0.27 0.24 0.20 0.20 0.22 0.21 0.19 0.19 0.21
1.12 1.21 1.19 1.16 1.20 1.27 1.25 1.02 1.03 0.96 0.87 0.82 0.68 0.56 0.49 0.44 0.42 0.37 0.34 0.34 0.41 0.35 0.28 0.19 0.14 0.11 0.13 0.18 0.26 0.28 0.26 0.21 0.16 0.16 0.18 0.19 0.17 0.16 0.17 0.17 0.17 0.18 0.19
1.46 1.60 1.55 1.54 1.52 1.47 1.41 1.33 1.41 1.35 1.08 0.95 0.99 0.90 0.74 0.55 0.51 0.46 0.37 0.35 0.43 0.48 0.45 0.33 0.23 0.17 0.11 0.11 0.13 0.16 0.20 0.21 0.23 0.20 0.18 0.19 0.16 0.13 0.15 0.17 0.17 0.19 0.20
1.70 1.73 1.89 1.96 1.93 1.99 1.94 1.74 1.81 1.82 1.51 1.25 1.32 1.48 1.19 0.93 0.61 0.51 0.48 0.42 0.43 0.50 0.58 0.48 0.35 0.27 0.20 0.18 0.11 0.10 0.13 0.20 0.28 0.29 0.25 0.21 0.16 0.11 0.11 0.14 0.17 0.18 0.19
1.84 1.86 1.96 2.09 2.10 2.15 2.20 2.24 2.15 2.20 1.98 1.62 1.47 1.58 1.37 1.17 0.96 0.59 0.52 0.55 0.56 0.58 0.60 0.61 0.53 0.42 0.34 0.29 0.19 0.11 0.10 0.11 0.19 0.26 0.28 0.23 0.16 0.11 0.10 0.10 0.14 0.18 0.18
2.03 2.09 2.11 2.19 2.20 2.19 2.26 2.35 2.28 2.36 2.38 2.02 1.75 1.50 1.28 1.17 1.13 0.88 0.67 0.58 0.63 0.65 0.67 0.68 0.62 0.53 0.46 0.41 0.33 0.22 0.14 0.10 0.12 0.19 0.26 0.28 0.22 0.17 0.14 0.12 0.13 0.16 0.20
2.13 2.15 2.21 2.34 2.31 2.24 2.23 2.44 2.46 2.49 2.41 2.32 2.15 1.96 1.79 1.49 1.10 1.08 1.02 0.82 0.69 0.60 0.65 0.71 0.71 0.67 0.59 0.52 0.51 0.39 0.24 0.13 0.11 0.19 0.26 0.32 0.30 0.26 0.22 0.20 0.18 0.21 0.22
2.14 2.03 1.96 2.08 2.11 2.12 2.13 2.30 2.45 2.53 2.47 2.50 2.38 2.08 1.95 1.77 1.41 1.33 1.17 1.02 0.94 0.74 0.67 0.66 0.68 0.67 0.65 0.61 0.58 0.60 0.42 0.25 0.15 0.16 0.24 0.30 0.30 0.28 0.28 0.30 0.29 0.27 0.26
1.97 1.98 1.88 1.86 1.85 1.79 1.81 1.94 2.01 2.07 2.18 2.31 2.23 2.00 1.93 1.74 1.65 1.61 1.45 1.23 1.05 0.82 0.76 0.68 0.63 0.65 0.64 0.61 0.67 0.75 0.53 0.34 0.20 0.16 0.18 0.23 0.27 0.28 0.27 0.30 0.34 0.38 0.38
1.68 1.74 1.72 1.65 1.67 1.71 1.71 1.77 1.78 1.79 1.81 1.88 1.89 1.92 1.94 1.80 1.70 1.57 1.49 1.57 1.39 1.15 0.95 0.79 0.73 0.70 0.68 0.64 0.73 0.75 0.55 0.47 0.31 0.21 0.18 0.20 0.22 0.24 0.27 0.29 0.32 0.37 0.39
1.25 1.31 1.39 1.43 1.49 1.55 1.60 1.71 1.76 1.76 1.71 1.68 1.80 1.85 1.77 1.72 1.69 1.54 1.45 1.46 1.50 1.39 1.25 1.02 0.86 0.77 0.78 0.77 0.84 0.65 0.53 0.52 0.42 0.32 0.26 0.22 0.23 0.23 0.23 0.24 0.24 0.24 0.24
0.89 0.95 1.06 1.21 1.37 1.47 1.55 1.61 1.63 1.70 1.72 1.69 1.77 1.86 1.86 1.87 1.89 1.79 1.62 1.53 1.42 1.38 1.31 1.11 0.90 0.76 0.88 0.86 0.90 0.68 0.60 0.65 0.52 0.43 0.33 0.28 0.26 0.26 0.24 0.21 0.17 0.14 0.13
0.73 0.83 0.88 1.02 1.16 1.27 1.45 1.60 1.61 1.62 1.63 1.61 1.59 1.67 1.77 1.87 1.97 1.97 1.92 1.75 1.59 1.52 1.43 1.27 1.03 0.80 0.88 0.96 0.93 0.80 0.69 0.58 0.52 0.49 0.39 0.34 0.30 0.27 0.28 0.28 0.23 0.18 0.14
0.58 0.67 0.78 0.95 1.08 1.15 1.17 1.25 1.32 1.35 1.35 1.39 1.38 1.36 1.46 1.58 1.70 1.85 1.90 1.84 1.79 1.67 1.58 1.52 1.32 1.03 0.87 0.88 0.91 0.94 0.84 0.68 0.61 0.62 0.55 0.46 0.40 0.34 0.31 0.29 0.26 0.23 0.18
0.58 0.62 0.76 0.88 0.93 0.97 1.00 0.97 1.02 1.10 1.12 1.11 1.16 1.14 1.16 1.27 1.40 1.52 1.61 1.67 1.76 1.79 1.74 1.63 1.51 1.32 1.06 0.97 0.98 0.96 0.94 0.96 0.79 0.72 0.70 0.62 0.57 0.50 0.46 0.41 0.35 0.29 0.25
0.60 0.66 0.81 0.88 0.89 0.82 0.90 0.91 0.91 0.93 0.91 0.88 0.92 0.93 0.97 1.00 1.06 1.18 1.34 1.52 1.67 1.77 1.81 1.76 1.63 1.41 1.24 1.15 1.09 1.07 1.09 1.09 1.02 0.88 0.80 0.74 0.73 0.65 0.58 0.51 0.45 0.39 0.35
0.61 0.67 0.72 0.82 0.86 0.83 0.85 0.91 0.89 0.78 0.75 0.76 0.74 0.66 0.67 0.74 0.75 0.80 0.87 1.14 1.37 1.53 1.63 1.69 1.62 1.44 1.23 1.13 1.02 1.03 1.09 1.17 1.18 1.10 1.00 0.84 0.76 0.70 0.66 0.62 0.54 0.45 0.39
0.50 0.56 0.61 0.77 0.88 0.79 0.90 0.88 0.79 0.69 0.65 0.68 0.65 0.60 0.59 0.64 0.57 0.51 0.53 0.73 1.01 1.17 1.32 1.45 1.49 1.36 1.22 1.11 1.10 1.08 1.05 1.04 1.04 0.96 0.89 0.90 0.83 0.78 0.72 0.68 0.70 0.64 0.55
0.45 0.50 0.55 0.70 0.80 0.88 0.82 0.68 0.70 0.67 0.67 0.68 0.70 0.70 0.64 0.60 0.69 0.59 0.54 0.57 0.65 0.77 0.90 1.09 1.27 1.29 1.36 1.25 1.11 1.02 0.98 0.97 0.94 0.93 0.86 0.84 0.79 0.74 0.69 0.67 0.73 0.70 0.67
0.43 0.48 0.54 0.57 0.65 0.78 0.71 0.58 0.61 0.58 0.67 0.74 0.76 0.80 0.83 0.77 0.73 0.80 0.75 0.77 0.72 0.65 0.73 0.65 0.80 1.12 1.22 1.25 1.18 1.12 1.11 1.02 0.93 0.90 0.83 0.84 0.83 0.76 0.65 0.60 0.63 0.58 0.55
0.47 0.49 0.54 0.57 0.63 0.67 0.63 0.55 0.55 0.60 0.73 0.76 0.74 0.83 0.84 0.76 0.80 0.86 0.95 1.01 0.93 0.78 0.92 0.93 0.84 0.90 0.99 1.01 1.05 1.07 1.08 0.99 0.93 0.87 0.72 0.64 0.65 0.67 0.68 0.64 0.58 0.55 0.49
0.46 0.48 0.47 0.47 0.51 0.53 0.58 0.48 0.58 0.68 0.73 0.74 0.75 0.80 0.94 0.83 0.80 0.79 0.84 0.95 0.94 0.82 0.72 0.75 0.72 0.63 0.56 0.63 0.78 0.86 1.03 1.06 0.98 0.88 0.71 0.60 0.61 0.58 0.61 0.58 0.50 0.47 0.44

GEFSMA_prec_meanprecacc_102.txt.gz
Total_Precipitation_Accumulation
0.76 0.69 0.58 0.59 0.53 0.55 0.58 0.58 0.56 0.51 0.48 0.40 0.40 0.39 0.38 0.36 0.36 0.36 0.45 0.64 0.96 1.07 0.81 0.60 0.42 0.36 0.39 0.40 0.39 0.41 0.47 0.50 0.54 0.57 0.53 0.48 0.51 0.45 0.32 0.26 0.25 0.24 0.27
0.71 0.73 0.67 0.68 0.68 0.65 0.64 0.61 0.57 0.61 0.57 0.46 0.40 0.37 0.36 0.31 0.30 0.36 0.46 0.61 0.72 0.86 1.00 0.90 0.68 0.55 0.45 0.40 0.37 0.34 0.37 0.42 0.46 0.50 0.52 0.45 0.43 0.38 0.30 0.25 0.27 0.24 0.24
0.67 0.73 0.75 0.74 0.75 0.75 0.74 0.74 0.71 0.73 0.64 0.55 0.49 0.38 0.31 0.28 0.28 0.35 0.37 0.45 0.41 0.41 0.64 0.84 0.84 0.74 0.63 0.54 0.42 0.31 0.28 0.32 0.37 0.42 0.48 0.45 0.37 0.32 0.26 0.27 0.28 0.28 0.23
0.69 0.78 0.79 0.81 0.86 0.78 0.75 0.80 0.84 0.84 0.77 0.69 0.62 0.47 0.32 0.31 0.32 0.33 0.33 0.36 0.36 0.28 0.33 0.41 0.45 0.54 0.67 0.70 0.58 0.37 0.26 0.24 0.28 0.36 0.43 0.36 0.29 0.29 0.27 0.29 0.27 0.27 0.26
0.86 0.93 0.96 0.98 1.00 1.01 0.93 0.81 0.82 0.86 0.90 0.84 0.68 0.54 0.40 0.37 0.39 0.35 0.41 0.40 0.37 0.31 0.31 0.24 0.25 0.26 0.33 0.45 0.52 0.47 0.36 0.24 0.22 0.27 0.34 0.30 0.24 0.24 0.24 0.23 0.22 0.21 0.23
1.13 1.22 1.19 1.16 1.20 1.27 1.26 1.03 1.05 1.00 0.92 0.91 0.79 0.66 0.57 0.52 0.52 0.46 0.43 0.43 0.49 0.41 0.35 0.26 0.21 0.16 0.19 0.27 0.36 0.39 0.34 0.27 0.21 0.20 0.24 0.24 0.23 0.20 0.21 0.19 0.19 0.20 0.20
1.46 1.60 1.55 1.54 1.52 1.48 1.42 1.35 1.43 1.37 1.12 1.00 1.06 0.98 0.83 0.64 0.61 0.54 0.45 0.44 0.52 0.56 0.52 0.39 0.29 0.21 0.16 0.16 0.20 0.25 0.30 0.31 0.31 0.27 0.24 0.26 0.24 0.19 0.20 0.21 0.20 0.20 0.21
1.70 1.73 1.89 1.96 1.93 1.99 1.95 1.75 1.83 1.84 1.53 1.29 1.38 1.54 1.27 1.02 0.68 0.58 0.55 0.49 0.52 0.58 0.65 0.54 0.42 0.33 0.26 0.24 0.14 0.17 0.21 0.30 0.39 0.38 0.33 0.29 0.25 0.17 0.16 0.18 0.20 0.20 0.21
1.84 1.86 1.96 2.09 2.10 2.15 2.20 2.25 2.17 2.22 2.01 1.65 1.51 1.64 1.43 1.26 1.04 0.66 0.58 0.62 0.64 0.67 0.67 0.68 0.60 0.48 0.42 0.37 0.25 0.16 0.16 0.17 0.29 0.34 0.36 0.31 0.25 0.19 0.17 0.15 0.19 0.21 0.21
2.03 2.09 2.11 2.19 2.20 2.19 2.26 2.36 2.30 2.37 2.40 2.04 1.78 1.55 1.33 1.23 1.21 0.96 0.73 0.65 0.71 0.74 0.76 0.75 0.70 0.62 0.55 0.51 0.42 0.30 0.20 0.16 0.20 0.29 0.35 0.37 0.30 0.25 0.22 0.19 0.19 0.20 0.24
2.13 2.16 2.21 2.34 2.31 2.25 2.24 2.45 2.47 2.51 2.42 2.35 2.18 2.00 1.84 1.53 1.15 1.15 1.10 0.89 0.76 0.67 0.73 0.80 0.80 0.76 0.68 0.62 0.60 0.49 0.32 0.20 0.18 0.29 0.36 0.42 0.40 0.36 0.31 0.29 0.25 0.25 0.25
2.14 2.04 1.97 2.09 2.13 2.14 2.15 2.32 2.46 2.54 2.49 2.52 2.40 2.12 2.01 1.83 1.46 1.38 1.23 1.08 1.00 0.80 0.73 0.74 0.75 0.74 0.74 0.69 0.65 0.68 0.51 0.32 0.21 0.24 0.33 0.41 0.42 0.41 0.40 0.41 0.39 0.34 0.31
1.97 1.99 1.89 1.88 1.89 1.84 1.85 1.97 2.03 2.09 2.21 2.34 2.24 2.02 1.97 1.78 1.70 1.66 1.51 1.29 1.10 0.87 0.81 0.75 0.70 0.73 0.72 0.69 0.73 0.81 0.59 0.40 0.26 0.21 0.24 0.29 0.35 0.39 0.40 0.43 0.45 0.46 0.45
1.68 1.75 1.73 1.67 1.70 1.74 1.73 1.79 1.80 1.81 1.83 1.90 1.91 1.94 1.97 1.83 1.73 1.61 1.54 1.62 1.43 1.19 0.99 0.84 0.80 0.77 0.75 0.73 0.82 0.83 0.60 0.52 0.36 0.26 0.22 0.23 0.26 0.30 0.37 0.40 0.44 0.49 0.49
1.26 1.31 1.40 1.46 1.53 1.58 1.62 1.73 1.78 1.78 1.72 1.70 1.81 1.87 1.79 1.75 1.72 1.59 1.49 1.51 1.55 1.42 1.28 1.06 0.93 0.83 0.85 0.85 0.93 0.74 0.59 0.58 0.48 0.37 0.31 0.27 0.26 0.27 0.28 0.32 0.36 0.37 0.38
0.90 0.95 1.07 1.24 1.42 1.53 1.58 1.63 1.65 1.71 1.73 1.70 1.79 1.88 1.88 1.89 1.92 1.83 1.66 1.57 1.47 1.43 1.36 1.15 0.95 0.83 0.96 0.94 0.98 0.77 0.68 0.74 0.61 0.51 0.40 0.34 0.31 0.31 0.29 0.26 0.24 0.23 0.24
0.74 0.84 0.89 1.04 1.19 1.33 1.50 1.63 1.64 1.63 1.64 1.63 1.60 1.68 1.79 1.91 2.00 2.01 1.96 1.80 1.63 1.55 1.45 1.29 1.06 0.86 0.96 1.05 1.01 0.89 0.79 0.68 0.62 0.58 0.49 0.42 0.37 0.34 0.34 0.33 0.28 0.23 0.21
0.59 0.67 0.80 0.97 1.10 1.17 1.20 1.28 1.35 1.36 1.37 1.41 1.40 1.37 1.48 1.61 1.73 1.88 1.94 1.88 1.84 1.71 1.61 1.54 1.34 1.06 0.94 0.98 1.01 1.04 0.95 0.79 0.72 0.74 0.67 0.58 0.49 0.41 0.37 0.35 0.30 0.27 0.23
0.59 0.64 0.78 0.90 0.95 0.99 1.02 1.00 1.06 1.14 1.16 1.14 1.18 1.16 1.18 1.29 1.42 1.55 1.64 1.71 1.80 1.84 1.79 1.65 1.54 1.34 1.10 1.06 1.09 1.08 1.06 1.08 0.91 0.84 0.82 0.75 0.69 0.61 0.54 0.47 0.40 0.34 0.30
0.61 0.67 0.83 0.91 0.92 0.85 0.93 0.94 0.96 0.99 0.96 0.92 0.95 0.96 0.98 1.02 1.09 1.20 1.36 1.55 1.71 1.80 1.85 1.80 1.67 1.44 1.27 1.22 1.19 1.17 1.20 1.21 1.15 1.00 0.92 0.86 0.86 0.77 0.68 0.59 0.52 0.45 0.41
0.61 0.68 0.74 0.85 0.89 0.85 0.87 0.94 0.92 0.82 0.79 0.79 0.77 0.69 0.70 0.76 0.77 0.82 0.89 1.15 1.39 1.56 1.66 1.73 1.65 1.47 1.27 1.19 1.09 1.11 1.18 1.28 1.30 1.23 1.14 0.98 0.90 0.83 0.78 0.73 0.64 0.54 0.46
0.50 0.56 0.62 0.78 0.90 0.81 0.91 0.89 0.80 0.70 0.67 0.70 0.67 0.61 0.60 0.64 0.58 0.53 0.56 0.76 1.02 1.19 1.35 1.48 1.52 1.38 1.24 1.16 1.17 1.17 1.15 1.15 1.15 1.07 1.01 1.03 0.96 0.90 0.84 0.78 0.80 0.74 0.64
0.45 0.50 0.56 0.71 0.81 0.89 0.83 0.68 0.71 0.68 0.67 0.69 0.72 0.72 0.65 0.61 0.69 0.60 0.55 0.61 0.69 0.80 0.93 1.13 1.30 1.31 1.38 1.28 1.16 1.09 1.07 1.07 1.05 1.05 0.98 0.95 0.91 0.85 0.78 0.76 0.82 0.78 0.76
0.43 0.48 0.54 0.58 0.66 0.79 0.73 0.58 0.61 0.58 0.68 0.75 0.78 0.83 0.84 0.78 0.75 0.81 0.76 0.78 0.74 0.68 0.76 0.68 0.83 1.15 1.26 1.30 1.23 1.18 1.19 1.11 1.03 1.02 0.95 0.94 0.93 0.86 0.75 0.68 0.71 0.65 0.62
0.47 0.49 0.54 0.57 0.63 0.67 0.64 0.55 0.56 0.60 0.74 0.77 0.75 0.84 0.85 0.77 0.83 0.89 0.97 1.02 0.94 0.80 0.95 0.98 0.88 0.95 1.04 1.07 1.11 1.13 1.13 1.07 1.02 0.97 0.82 0.75 0.74 0.75 0.76 0.73 0.67 0.64 0.57
0.46 0.48 0.47 0.47 0.51 0.54 0.58 0.48 0.58 0.69 0.74 0.75 0.76 0.81 0.95 0.86 0.83 0.81 0.86 0.96 0.95 0.84 0.75 0.79 0.75 0.65 0.59 0.67 0.83 0.92 1.09 1.14 1.07 0.96 0.79 0.69 0.70 0.66 0.68 0.64 0.56 0.55 0.52